| time (UTC) | temp C | wind direction | speed KPH | gust KPH | rain 1hr cm | rain 24hr cm | rain mn cm | humidity % | barometer mb |
| 20260903033034 | 28 | 85 | 0.0 | 0.0 | 0.00 | 0.00 | 0.00 | 52 | 1010.3 |
| 20260903031544 | 29 | 85 | 0.0 | 0.0 | 0.00 | 0.00 | 0.00 | 51 | 1010.2 |
| 20260903030033 | 30 | 77 | 0.0 | 3.2 | 0.00 | 0.00 | 0.00 | 50 | 1010.0 |
| 20260903024533 | 30 | 84 | 1.6 | 3.2 | 0.00 | 0.00 | 0.00 | 50 | 1009.8 |
| 20260903023035 | 30 | 78 | 1.6 | 4.8 | 0.00 | 0.00 | 0.00 | 50 | 1009.6 |
| 20260903021532 | 30 | 76 | 1.6 | 4.8 | 0.00 | 0.00 | 0.00 | 49 | 1009.3 |
| 20260903020039 | 31 | 76 | 1.6 | 4.8 | 0.00 | 0.00 | 0.00 | 49 | 1009.1 |
| 20260903014529 | 31 | 97 | 3.2 | 8.0 | 0.00 | 0.00 | 0.00 | 48 | 1009.0 |
| 20260903013029 | 31 | 90 | 3.2 | 6.4 | 0.00 | 0.00 | 0.00 | 47 | 1008.9 |
| 20260903011529 | 32 | 111 | 1.6 | 4.8 | 0.00 | 0.00 | 0.00 | 45 | 1008.7 |
| 20260903010031 | 33 | 135 | 1.6 | 4.8 | 0.00 | 0.00 | 0.00 | 44 | 1008.6 |
| 20260903004529 | 34 | 184 | 0.0 | 4.8 | 0.00 | 0.00 | 0.00 | 42 | 1008.5 |
| 20260903003027 | 35 | 164 | 0.0 | 8.0 | 0.00 | 0.00 | 0.00 | 41 | 1008.5 |
| 20260903001525 | 35 | 184 | 3.2 | 11.3 | 0.00 | 0.00 | 0.00 | 40 | 1008.5 |
| 20260903000032 | 36 | 160 | 3.2 | 8.0 | 0.00 | 0.00 | 0.00 | 38 | 1008.5 |
| 20260902234527 | 36 | 238 | 4.8 | 11.3 | 0.00 | 0.00 | 0.00 | 37 | 1008.7 |
| 20260902233024 | 36 | 217 | 4.8 | 11.3 | 0.00 | 0.00 | 0.00 | 38 | 1008.7 |
| 20260902231525 | 37 | 220 | 4.8 | 12.9 | 0.00 | 0.00 | 0.00 | 37 | 1008.7 |
| 20260902230022 | 37 | 233 | 4.8 | 12.9 | 0.00 | 0.00 | 0.00 | 37 | 1008.7 |
| 20260902224521 | 37 | 211 | 4.8 | 14.5 | 0.00 | 0.00 | 0.00 | 36 | 1008.6 |
| 20260902223037 | 37 | 183 | 3.2 | 12.9 | 0.00 | 0.00 | 0.00 | 38 | 1008.6 |
| 20260902221521 | 37 | 160 | 1.6 | 11.3 | 0.00 | 0.00 | 0.00 | 36 | 1008.8 |
| 20260902220017 | 37 | 173 | 3.2 | 9.7 | 0.00 | 0.00 | 0.00 | 35 | 1008.9 |
| 20260902214516 | 38 | 166 | 1.6 | 8.0 | 0.00 | 0.00 | 0.00 | 33 | 1009.0 |
| 20260902213012 | 37 | 189 | 3.2 | 11.3 | 0.00 | 0.00 | 0.00 | 35 | 1009.2 |
| 20260902211516 | 37 | 255 | 3.2 | 14.5 | 0.00 | 0.00 | 0.00 | 37 | 1009.2 |
| 20260902210008 | 37 | 202 | 8.0 | 12.9 | 0.00 | 0.00 | 0.00 | 36 | 1009.4 |
| 20260902204505 | 37 | 260 | 4.8 | 14.5 | 0.00 | 0.00 | 0.00 | 38 | 1009.8 |
| 20260902203004 | 36 | 161 | 6.4 | 12.9 | 0.00 | 0.00 | 0.00 | 38 | 1010.0 |
| 20260902201502 | 36 | 249 | 3.2 | 9.7 | 0.00 | 0.00 | 0.00 | 40 | 1010.2 |
| 20260902200059 | 36 | 222 | 3.2 | 8.0 | 0.00 | 0.00 | 0.00 | 40 | 1010.6 |
| 20260902194557 | 35 | 38 | 1.6 | 12.9 | 0.00 | 0.00 | 0.00 | 42 | 1010.8 |
| 20260902193055 | 36 | 170 | 4.8 | 9.7 | 0.00 | 0.00 | 0.00 | 40 | 1010.9 |
| 20260902191553 | 35 | 305 | 3.2 | 8.0 | 0.00 | 0.00 | 0.00 | 44 | 1011.2 |
| 20260902190050 | 35 | 78 | 0.0 | 3.2 | 0.00 | 0.00 | 0.00 | 44 | 1011.5 |
| 20260902184548 | 36 | 116 | 1.6 | 9.7 | 0.00 | 0.00 | 0.00 | 42 | 1011.8 |
| 20260902183056 | 35 | 293 | 4.8 | 12.9 | 0.00 | 0.00 | 0.00 | 43 | 1012.0 |
| 20260902181543 | 35 | 229 | 3.2 | 6.4 | 0.00 | 0.00 | 0.00 | 44 | 1012.3 |
| 20260902180044 | 35 | 262 | 3.2 | 14.5 | 0.00 | 0.00 | 0.00 | 44 | 1012.6 |
| 20260902174537 | 34 | 19 | 3.2 | 9.7 | 0.00 | 0.00 | 0.00 | 45 | 1012.7 |
| 20260902173046 | 34 | 310 | 3.2 | 8.0 | 0.00 | 0.00 | 0.00 | 47 | 1012.9 |
| 20260902171530 | 33 | 260 | 4.8 | 9.7 | 0.00 | 0.00 | 0.00 | 50 | 1013.2 |
| 20260902170033 | 33 | 222 | 6.4 | 12.9 | 0.00 | 0.00 | 0.00 | 49 | 1013.4 |
| 20260902164530 | 33 | 274 | 3.2 | 9.7 | 0.00 | 0.00 | 0.00 | 49 | 1013.5 |
| 20260902163022 | 32 | 288 | 6.4 | 12.9 | 0.00 | 0.00 | 0.00 | 51 | 1013.5 |
| 20260902161518 | 31 | 170 | 3.2 | 16.1 | 0.00 | 0.00 | 0.00 | 52 | 1013.6 |
| 20260902160015 | 31 | 209 | 3.2 | 14.5 | 0.00 | 0.00 | 0.00 | 54 | 1013.6 |
| 20260902154511 | 30 | 319 | 1.6 | 6.4 | 0.00 | 0.00 | 0.00 | 61 | 1013.6 |
| 20260902153010 | 30 | 316 | 3.2 | 8.0 | 0.00 | 0.00 | 0.00 | 63 | 1013.6 |
| 20260902151504 | 28 | 104 | 1.6 | 6.4 | 0.00 | 0.00 | 0.00 | 68 | 1013.8 |
| 20260902144557 | 27 | 282 | 1.6 | 4.8 | 0.00 | 0.00 | 0.00 | 75 | 1013.9 |
| 20260902143058 | 26 | 239 | 0.0 | 4.8 | 0.00 | 0.00 | 0.00 | 78 | 1014.0 |
| 20260902141556 | 25 | 7 | 0.0 | 1.6 | 0.00 | 0.00 | 0.00 | 80 | 1014.0 |
| 20260902140054 | 23 | 64 | 0.0 | 0.0 | 0.00 | 0.00 | 0.00 | 82 | 1014.0 |
| 20260902134554 | 22 | 68 | 0.0 | 0.0 | 0.00 | 0.00 | 0.00 | 84 | 1014.0 |
| 20260902133057 | 21 | 68 | 0.0 | 0.0 | 0.00 | 0.00 | 0.00 | 87 | 1014.0 |
| 20260902131551 | 21 | 68 | 0.0 | 0.0 | 0.00 | 0.00 | 0.00 | 89 | 1013.9 |
| 20260902130048 | 20 | 68 | 0.0 | 0.0 | 0.00 | 0.00 | 0.00 | 90 | 1013.7 |
| 20260902124549 | 20 | 68 | 0.0 | 0.0 | 0.00 | 0.00 | 0.00 | 89 | 1013.5 |
| 20260902123045 | 20 | 68 | 0.0 | 0.0 | 0.00 | 0.00 | 0.00 | 89 | 1013.3 |
| 20260902121546 | 20 | 68 | 0.0 | 0.0 | 0.00 | 0.00 | 0.00 | 88 | 1013.3 |
| 20260902120043 | 20 | 68 | 0.0 | 0.0 | 0.00 | 0.00 | 0.00 | 88 | 1013.2 |
| 20260902114542 | 20 | 68 | 0.0 | 0.0 | 0.00 | 0.00 | 0.00 | 88 | 1013.2 |
| 20260902113039 | 21 | 68 | 0.0 | 0.0 | 0.00 | 0.00 | 0.00 | 87 | 1013.2 |
| 20260902111538 | 21 | 68 | 0.0 | 0.0 | 0.00 | 0.00 | 0.00 | 87 | 1013.1 |
| 20260902110047 | 21 | 68 | 0.0 | 0.0 | 0.00 | 0.00 | 0.00 | 86 | 1013.1 |
| 20260902104552 | 21 | 68 | 0.0 | 0.0 | 0.00 | 0.00 | 0.00 | 85 | 1013.1 |
| 20260902103047 | 21 | 68 | 0.0 | 0.0 | 0.00 | 0.00 | 0.00 | 84 | 1013.1 |
| 20260902101532 | 22 | 68 | 0.0 | 0.0 | 0.00 | 0.00 | 0.00 | 85 | 1013.1 |
| 20260902100030 | 22 | 68 | 0.0 | 0.0 | 0.00 | 0.00 | 0.00 | 83 | 1013.1 |
| 20260902094528 | 22 | 68 | 0.0 | 0.0 | 0.00 | 0.00 | 0.00 | 81 | 1013.1 |
| 20260902093025 | 23 | 68 | 0.0 | 0.0 | 0.00 | 0.00 | 0.00 | 81 | 1013.1 |
| 20260902091525 | 23 | 68 | 0.0 | 0.0 | 0.00 | 0.00 | 0.00 | 80 | 1013.1 |
| 20260902090028 | 23 | 68 | 0.0 | 0.0 | 0.00 | 0.00 | 0.00 | 80 | 1013.2 |
| 20260902084623 | 23 | 68 | 0.0 | 0.0 | 0.00 | 0.00 | 0.00 | 80 | 1013.1 |
| 20260902083021 | 23 | 68 | 0.0 | 0.0 | 0.00 | 0.00 | 0.00 | 81 | 1013.3 |
| 20260902081520 | 23 | 68 | 0.0 | 0.0 | 0.00 | 0.00 | 0.00 | 80 | 1013.3 |
| 20260902080021 | 23 | 68 | 0.0 | 0.0 | 0.00 | 0.00 | 0.00 | 78 | 1013.3 |
| 20260902074514 | 24 | 68 | 0.0 | 0.0 | 0.00 | 0.00 | 0.00 | 77 | 1013.3 |
| 20260902073011 | 25 | 68 | 0.0 | 0.0 | 0.00 | 0.00 | 0.00 | 75 | 1013.3 |
| 20260902071508 | 25 | 83 | 0.0 | 3.2 | 0.00 | 0.00 | 0.00 | 74 | 1013.2 |
| 20260902070008 | 25 | 76 | 1.6 | 4.8 | 0.00 | 0.00 | 0.00 | 73 | 1013.2 |
| 20260902064509 | 26 | 67 | 1.6 | 3.2 | 0.00 | 0.00 | 0.00 | 72 | 1013.1 |
| 20260902063008 | 26 | 74 | 0.0 | 4.8 | 0.00 | 0.00 | 0.00 | 71 | 1013.2 |
| 20260902061622 | 26 | 92 | 1.6 | 8.0 | 0.00 | 0.00 | 0.00 | 70 | 1013.0 |
| 20260902054556 | 26 | 99 | 3.2 | 6.4 | 0.00 | 0.00 | 0.00 | 68 | 1012.9 |
| 20260902053054 | 26 | 78 | 3.2 | 8.0 | 0.00 | 0.00 | 0.00 | 67 | 1012.9 |
| 20260902051602 | 27 | 93 | 4.8 | 8.0 | 0.00 | 0.00 | 0.00 | 66 | 1012.9 |
| 20260902050048 | 27 | 101 | 3.2 | 8.0 | 0.00 | 0.00 | 0.00 | 65 | 1012.7 |
| 20260902044605 | 27 | 96 | 3.2 | 6.4 | 0.00 | 0.00 | 0.00 | 64 | 1012.7 |
| 20260902043048 | 26 | 87 | 1.6 | 4.8 | 0.00 | 0.00 | 0.00 | 64 | 1012.7 |
| 20260902041550 | 26 | 80 | 0.0 | 0.0 | 0.00 | 0.00 | 0.00 | 64 | 1012.7 |
| 20260902040046 | 26 | 70 | 0.0 | 0.0 | 0.00 | 0.00 | 0.00 | 64 | 1012.7 |
| 20260902034545 | 26 | 70 | 0.0 | 3.2 | 0.00 | 0.00 | 0.00 | 62 | 1012.5 |